Location: Easter Hill Village
(37.9235°N, 122.3444°W)
Time: 15:29:59
(UTC+00:00)

Cosmos 1707 Rocket - Pass Details

Date: 16 September 2019
Orbit: 604 x 633 km, 82.5° (Epoch: 15 October)

Event Time Altitude Azimuth Distance (km) Brightness Sun altitude
Exits shadow 12:29:25 30° 270° (W) 1,115 4.3 -16.8°
Maximum altitude 12:29:54 31° 283° (WNW) 1,097 4.4 -16.7°
Drops below altitude 10° 12:33:51 10° 346° (NNW) 1,999 6.2 -16.0°
Sets 12:36:18 0° 357° (N) 2,905 7.2 -15.5°
